This demonstration page uses our WeatherBlox Daily Observations layout. Learn more.

Left ArrowRight Arrow

38.20091, -84.87328

Hourly Observations for May 10, 2020

Temp ( °F °C ) Dew Point ( °F °C ) Humidity (%) Winds ( mph kmh ) Pressure ( in mb ) Visibility ( mi km ) Precip ( " mm )
12:53 am 00:53 Clear 40 4.4 33 0.6 77 77 Calm 30.23 1024 10 16 0.00 0.00
1:53 am 01:53 Clear 37 2.8 33 0.6 86 86 Calm 30.22 1023 10 16 0.00 0.00
2:53 am 02:53 Clear 39 3.9 33 0.6 79 79 Calm 30.18 1022 10 16 0.00 0.00
3:53 am 03:53 Clear 40 4.4 33 0.6 77 77 Calm 30.17 1022 10 16 0.00 0.00
4:53 am 04:53 Clear 41 5 34 1.1 76 76 Calm 30.16 1021 10 16 0.00 0.00
5:53 am 05:53 Clear 40 4.4 33 0.6 77 77 Calm 30.16 1021 10 16 0.00 0.00
9:53 am 09:53 Sunny 56 13.3 35 1.7 46 46 SSW 10 17 30.15 1021 10 16 0.00 0.00
10:53 am 10:53 Sunny 60 15.6 36 2.2 41 41 SW 15 24 30.14 1021 10 16 0.00 0.00
11:53 am 11:53 Mostly Cloudy 60 15.6 37 2.8 42 42 SW 15 24 30.12 1020 10 16 0.00 0.00
12:53 pm 12:53 Mostly Cloudy 60 15.6 37 2.8 42 42 SW 15 24 30.09 1019 10 16 0.00 0.00
1:53 pm 13:53 Mostly Cloudy 65 18.3 41 5 42 42 SSW 20 31 30.06 1018 10 16 0.00 0.00
2:53 pm 14:53 Mostly Sunny 67 19.4 40 4.4 37 37 SSW 25 41 30.01 1016 10 16 0.00 0.00
3:53 pm 15:53 Partly Cloudy 68 20 39 3.9 35 35 SW 23 37 29.98 1015 10 16 0.00 0.00
4:22 pm 16:22 Cloudy with Nearby Thunderstorms 61 16.1 39 3.9 44 44 WNW 12 19 29.99 1016 10 16 0.00 0.00
4:39 pm 16:39 Cloudy with Light Rain 57 13.9 43 6.1 60 60 WNW 12 19 30.01 1016 10 16 0.00 0.00
4:53 pm 16:53 Partly Cloudy 61 16.1 46 7.8 58 58 W 9 15 29.98 1015 10 16 0.00 0.00
5:53 pm 17:53 Sunny 66 18.9 40 4.4 39 39 W 18 30 29.96 1015 10 16 0.00 0.00
6:53 pm 18:53 Sunny 65 18.3 34 1.1 32 32 W 14 22 29.98 1015 10 16 0.00 0.00
7:53 pm 19:53 Mostly Cloudy 60 15.6 37 2.8 42 42 NW 16 26 30.02 1017 10 16 0.00 0.00
8:53 pm 20:53 Mostly Clear 53 11.7 35 1.7 51 51 WNW 16 26 30.07 1018 10 16 0.00 0.00
9:53 pm 21:53 Clear 50 10 33 0.6 52 52 W 8 13 30.09 1019 10 16 0.00 0.00
10:53 pm 22:53 Clear 49 9.4 32 0 52 52 W 8 13 30.11 1020 10 16 0.00 0.00
11:53 pm 23:53 Clear 48 8.9 32 0 54 54 W 8 13 30.11 1020 10 16 0.00 0.00

Powered by AerisWeather